#timestamp,LO_Frequency,Hit,StdDev 
1512860415.3,286047002.3,N
1512860435.1,286047002.2,N
1512860436.0,286047002.2,N
1512860455.8,286047002.3,N
1512860475.7,286047000.4,N
1512860495.5,286047002.7,N
1512860515.3,286046996.9,N
1512860535.2,286046997.3,N
1512860555.0,286046997.8,N
1512860555.9,286046997.8,N
1512860575.8,286046996.9,N
1512860595.6,286047001.0,N
1512860615.4,286047002.1,N
1512860635.3,286047004.3,N
1512860655.1,286047001.4,N
1512860675.9,286047001.6,N
1512860695.7,286047002.7,N
1512860715.5,286047002.8,N
1512860735.4,286047001.8,N
1512860755.2,286047001.7,N
1512860775.1,286047001.4,N
1512860776.0,286047001.4,N
1512860795.8,286047003.7,N
1512860815.6,286047002.2,N
1512860835.5,286047002.3,N
1512860855.3,286047000.6,N
1512860875.1,286047002.3,N
1512860895.9,286047000.1,N
1512860915.7,286047000.1,N
1512860935.6,286046998.7,N
1512860955.4,286046998.9,N
1512860975.2,286046996.6,N
1512860995.1,286047004.2,N
1512860996.0,286047004.2,N
1512861015.8,286047001.5,N
1512861035.7,286047002.5,N
1512861055.5,286047002.6,N
1512861075.3,286047001.7,N
1512861095.2,286047000.4,N
1512861115.0,286047004.2,N
1512861115.9,286047004.2,N
1512861135.8,286047001.4,N
1512861155.6,286047004.4,N
1512861175.4,286047003.8,N
1512861195.3,286046998.6,N
1512861215.1,286046998.3,N
1512861235.8,286047000.0,N
1512861255.7,286047000.1,N
1512861275.5,286047000.7,N
1512861295.4,286046998.3,N
1512861315.2,286046999.3,N
1512861335.0,286047000.7,N
1512861335.9,286047000.7,N
1512861355.8,286047001.6,N
1512861375.6,286047000.9,N
1512861395.5,286047000.6,N
1512861415.3,286046999.8,N
1512861435.1,286047000.5,N
1512861455.9,286047011.9,Y
1512861475.7,286046996.5,P
1512861495.6,286046995.4,N
1512861515.4,286046995.7,N
1512861535.2,286046996.9,N
1512861555.1,286046999.1,N
1512861556.0,286046999.1,N
1512861575.8,286047000.7,N
1512861595.7,286047000.8,N
1512861615.5,286046994.9,N
1512861635.3,286046995.4,N
1512861655.2,286046997.6,N
1512861675.0,286046996.5,N
1512861675.9,286046996.5,N
1512861695.8,286047001.0,N
1512861715.6,286046999.7,N
1512861735.4,286047004.2,N
1512861755.3,286047002.7,N
1512861775.1,286046998.4,N
1512861795.8,286046997.9,N
1512861815.7,286046999.5,N
1512861835.5,286046998.2,N
1512861855.4,286047000.6,N
1512861875.2,286047000.5,N
1512861895.0,286047004.2,N
1512861895.9,286047004.2,N
1512861915.8,286047001.3,N
1512861935.6,286047003.8,N
1512861955.4,286047004.4,N
1512861975.3,286047003.7,N
1512861995.1,286047006.0,N
1512862015.9,286047007.5,N
1512862035.7,286047005.5,N
1512862055.5,286047003.2,N
1512862075.4,286047000.4,N
1512862095.2,286047002.5,N
1512862115.1,286047001.5,N
1512862116.0,286047001.5,N
1512862135.8,286047004.2,N
1512862155.6,286047004.5,N
1512862175.5,286047007.5,N
1512862195.3,286047005.0,N
1512862215.1,286047006.6,N
1512862235.9,286047007.9,N
1512862255.7,286047004.9,N
1512862275.6,286047005.7,N
1512862295.4,286047003.2,N
1512862315.2,286047002.5,N
1512862335.1,286046999.8,N
1512862336.0,286046999.8,N
1512862355.8,286047000.3,N
1512862375.7,286047000.9,N
1512862395.5,286047001.5,N
1512862415.3,286047001.6,N
1512862435.2,286047004.2,N
1512862455.9,286047003.7,N
1512862475.7,286047002.9,N
1512862495.6,286047001.3,N
1512862515.4,286047001.1,N
1512862535.3,286046999.2,N
1512862555.1,286046996.8,N
1512862556.0,286046996.8,N
1512862575.8,286046996.6,N
1512862595.7,286046998.5,N
1512862615.5,286046998.2,N
1512862635.3,286047001.2,N
1512862655.2,286047000.1,N
1512862675.0,286046998.6,N
1512862675.9,286046998.6,N
1512862695.8,286046997.5,N
1512862715.6,286046994.9,N
1512862735.4,286046995.7,N
1512862755.3,286046993.5,N
1512862775.1,286046992.0,N
1512862795.9,286046992.1,N
1512862815.7,286046993.8,N
1512862835.5,286046997.4,N
1512862855.4,286046997.1,N
1512862875.2,286046996.8,N
1512862895.0,286046996.7,N
1512862896.0,286046996.7,N
1512862915.8,286046997.6,N
1512862935.6,286046995.3,N
1512862955.5,286046997.5,N
1512862975.3,286046997.4,N
1512862995.1,286046995.4,N
1512863015.9,286046997.5,N
1512863035.7,286046993.4,N
1512863055.6,286046997.7,N
1512863075.4,286046997.2,N
1512863095.2,286046998.7,N
1512863115.1,286046997.1,N
1512863116.0,286046997.1,N
1512863135.8,286046995.5,N
1512863155.7,286046995.0,N
1512863175.5,286046997.8,N
1512863195.3,286046997.9,N
1512863215.2,286046998.2,N
1512863235.0,286046998.1,N
1512863235.9,286046998.1,N
1512863255.7,286047001.1,N
1512863275.6,286047000.2,N
1512863295.4,286047002.5,N
1512863315.3,286047002.0,N
1512863335.1,286047000.6,N
1512863336.0,286047000.6,N
1512863355.8,286047000.8,N
1512863375.7,286046999.7,N
1512863395.5,286047000.1,N
1512863415.4,286047000.5,N
1512863435.2,286047001.6,N
1512863455.0,286047002.2,N
1512863455.9,286047002.2,N
1512863475.8,286047001.8,N
1512863495.6,286047001.3,N
1512863515.4,286047003.8,N
1512863535.3,286047004.7,N
1512863555.1,286047003.2,N
1512863575.9,286047004.4,N
1512863595.7,286047003.5,N
1512863615.5,286047002.0,N
1512863635.4,286047000.0,N
1512863655.2,286047000.8,N
1512863675.0,286047001.5,N
1512863676.0,286047001.5,N
1512863695.8,286047000.1,N
1512863715.6,286047002.1,N
1512863735.5,286047004.0,N
1512863755.3,286046999.8,N
1512863775.1,286047002.1,N
1512863795.9,286047001.9,N
1512863815.7,286047001.9,N
1512863835.6,286047001.0,N
1512863855.4,286047002.7,N
1512863875.2,286047002.3,N
1512863895.1,286047004.4,Y
1512863896.0,286047004.4,P
1512863915.8,286047000.3,N
1512863935.6,286047000.4,N
1512863955.5,286047002.7,N
1512863975.3,286047000.3,N
1512863995.2,286047002.3,N
